,,PressureMeas_1m,,PRMeasQMR101_1,,RHStat155_1m_1,,SRMeasQMS101R_1m,,TAStat155_1m_1,,GenWind_1,,GenWind_1,
2017-09-26, 07:00:06,VALID,917.64,VALID,0.0,VALID,97.189,VALID,68.78,VALID,19.805,VALID,131.0,VALID,0.865,
2017-09-26, 07:01:06,VALID,917.636,VALID,0.0,VALID,96.986,VALID,69.665,VALID,19.807,VALID,126.0,VALID,0.868,
2017-09-26, 07:02:06,VALID,917.62,VALID,0.0,VALID,96.812,VALID,70.819,VALID,19.809,VALID,121.0,VALID,0.89,
2017-09-26, 07:03:06,VALID,917.62,VALID,0.0,VALID,96.709,VALID,72.808,VALID,19.829,VALID,136.0,VALID,0.83,
2017-09-26, 07:04:06,VALID,917.602,VALID,0.0,VALID,96.556,VALID,76.037,VALID,19.85,VALID,132.0,VALID,0.975,
2017-09-26, 07:05:06,VALID,917.594,VALID,0.0,VALID,96.45,VALID,80.429,VALID,19.881,VALID,129.0,VALID,0.927,
2017-09-26, 07:06:06,VALID,917.614,VALID,0.0,VALID,96.298,VALID,85.432,VALID,19.885,VALID,119.0,VALID,0.977,
2017-09-26, 07:07:06,VALID,917.623,VALID,0.0,VALID,96.291,VALID,90.029,VALID,19.895,VALID,127.0,VALID,1.015,
2017-09-26, 07:08:06,VALID,917.647,VALID,0.0,VALID,96.488,VALID,93.857,VALID,19.926,VALID,124.0,VALID,1.163,
2017-09-26, 07:09:06,VALID,917.657,VALID,0.0,VALID,96.08,VALID,97.28,VALID,19.908,VALID,122.0,VALID,1.446,
2017-09-26, 07:10:06,VALID,917.676,VALID,0.0,VALID,96.139,VALID,100.896,VALID,19.944,VALID,121.0,VALID,1.282,
2017-09-26, 07:11:06,VALID,917.687,VALID,0.0,VALID,96.1,VALID,104.842,VALID,19.956,VALID,123.0,VALID,1.561,
2017-09-26, 07:12:06,VALID,917.702,VALID,0.0,VALID,96.097,VALID,109.704,VALID,19.983,VALID,128.0,VALID,1.435,
2017-09-26, 07:13:06,VALID,917.717,VALID,0.0,VALID,95.804,VALID,115.456,VALID,19.994,VALID,121.0,VALID,1.705,
2017-09-26, 07:14:06,VALID,917.733,VALID,0.0,VALID,95.842,VALID,121.618,VALID,20.044,VALID,122.0,VALID,1.499,
2017-09-26, 07:15:06,VALID,917.748,VALID,0.0,VALID,95.59,VALID,128.167,VALID,20.076,VALID,122.0,VALID,1.554,
2017-09-26, 07:16:06,VALID,917.77,VALID,0.0,VALID,95.294,VALID,135.099,VALID,20.106,VALID,119.0,VALID,1.393,
2017-09-26, 07:17:06,VALID,917.786,VALID,0.0,VALID,95.287,VALID,141.66,VALID,20.159,VALID,122.0,VALID,1.151,
2017-09-26, 07:18:06,VALID,917.799,VALID,0.0,VALID,95.418,VALID,147.678,VALID,20.223,VALID,114.0,VALID,0.949,
2017-09-26, 07:19:06,VALID,917.805,VALID,0.0,VALID,95.17,VALID,153.024,VALID,20.279,VALID,123.0,VALID,1.504,
2017-09-26, 07:20:06,VALID,917.805,VALID,0.0,VALID,94.685,VALID,158.301,VALID,20.322,VALID,132.0,VALID,1.138,
2017-09-26, 07:21:06,VALID,917.806,VALID,0.0,VALID,95.027,VALID,163.378,VALID,20.399,VALID,122.0,VALID,1.121,
2017-09-26, 07:22:06,VALID,917.801,VALID,0.0,VALID,94.564,VALID,169.32,VALID,20.444,VALID,124.0,VALID,1.358,
2017-09-26, 07:23:06,VALID,917.808,VALID,0.0,VALID,94.094,VALID,176.07,VALID,20.461,VALID,124.0,VALID,1.627,
2017-09-26, 07:24:06,VALID,917.818,VALID,0.0,VALID,93.834,VALID,183.83,VALID,20.475,VALID,127.0,VALID,1.391,
2017-09-26, 07:25:06,VALID,917.832,VALID,0.0,VALID,94.021,VALID,190.167,VALID,20.526,VALID,123.0,VALID,1.073,
2017-09-26, 07:26:06,VALID,917.833,VALID,0.0,VALID,93.961,VALID,187.399,VALID,20.62,VALID,114.0,VALID,1.214,
2017-09-26, 07:27:06,VALID,917.851,VALID,0.0,VALID,93.196,VALID,185.682,VALID,20.713,VALID,115.0,VALID,1.62,
2017-09-26, 07:28:06,VALID,917.849,VALID,0.0,VALID,91.748,VALID,189.905,VALID,20.787,VALID,122.0,VALID,1.902,
2017-09-26, 07:29:06,VALID,917.856,VALID,0.0,VALID,92.637,VALID,199.213,VALID,20.87,VALID,98.0,VALID,1.427,
2017-09-26, 07:30:06,VALID,917.857,VALID,0.0,VALID,93.424,VALID,238.205,VALID,20.959,VALID,115.0,VALID,1.034,
2017-09-26, 07:31:06,VALID,917.881,VALID,0.0,VALID,93.158,VALID,291.588,VALID,21.081,VALID,120.0,VALID,1.083,
2017-09-26, 07:32:06,VALID,917.889,VALID,0.0,VALID,91.9,VALID,361.034,VALID,21.205,VALID,138.0,VALID,1.128,
2017-09-26, 07:33:06,VALID,917.889,VALID,0.0,VALID,91.289,VALID,249.387,VALID,21.36,VALID,112.0,VALID,1.5,
2017-09-26, 07:34:06,VALID,917.89,VALID,0.0,VALID,89.895,VALID,280.431,VALID,21.497,VALID,112.0,VALID,1.218,
2017-09-26, 07:35:06,VALID,917.897,VALID,0.0,VALID,89.917,VALID,357.627,VALID,21.609,VALID,97.0,VALID,0.837,
2017-09-26, 07:36:06,VALID,917.889,VALID,0.0,VALID,90.544,VALID,376.869,VALID,21.743,VALID,93.0,VALID,0.745,
2017-09-26, 07:37:06,VALID,917.895,VALID,0.0,VALID,89.165,VALID,373.927,VALID,21.901,VALID,102.0,VALID,0.775,
2017-09-26, 07:38:06,VALID,917.9,VALID,0.0,VALID,87.611,VALID,373.165,VALID,22.079,VALID,144.0,VALID,0.772,
2017-09-26, 07:39:06,VALID,917.909,VALID,0.0,VALID,86.191,VALID,374.897,VALID,22.264,VALID,111.0,VALID,0.501,
2017-09-26, 07:40:06,VALID,917.936,VALID,0.0,VALID,86.617,VALID,370.862,VALID,22.481,VALID,97.0,VALID,1.105,
2017-09-26, 07:41:06,VALID,917.973,VALID,0.0,VALID,84.789,VALID,354.103,VALID,22.624,VALID,158.0,VALID,0.532,
2017-09-26, 07:42:06,VALID,918.008,VALID,0.0,VALID,84.583,VALID,186.689,VALID,22.757,VALID,98.0,VALID,0.989,
2017-09-26, 07:43:06,VALID,918.031,VALID,0.0,VALID,84.169,VALID,99.93,VALID,22.689,VALID,70.0,VALID,1.479,
2017-09-26, 07:44:06,VALID,918.059,VALID,0.0,VALID,85.765,VALID,106.517,VALID,22.431,VALID,81.0,VALID,1.189,
2017-09-26, 07:45:06,VALID,918.091,VALID,0.0,VALID,85.995,VALID,225.402,VALID,22.173,VALID,91.0,VALID,1.523,
2017-09-26, 07:46:06,VALID,918.115,VALID,0.0,VALID,85.657,VALID,272.177,VALID,21.992,VALID,100.0,VALID,1.774,
2017-09-26, 07:47:06,VALID,918.129,VALID,0.0,VALID,84.93,VALID,296.324,VALID,21.928,VALID,103.0,VALID,1.69,
2017-09-26, 07:48:06,VALID,918.141,VALID,0.0,VALID,85.831,VALID,377.808,VALID,22.019,VALID,98.0,VALID,1.121,
2017-09-26, 07:49:06,VALID,918.16,VALID,0.0,VALID,83.047,VALID,413.905,VALID,22.202,VALID,110.0,VALID,1.329,
2017-09-26, 07:50:06,VALID,918.154,VALID,0.0,VALID,83.731,VALID,423.778,VALID,22.394,VALID,99.0,VALID,0.986,
2017-09-26, 07:51:06,VALID,918.166,VALID,0.0,VALID,82.426,VALID,428.287,VALID,22.628,VALID,97.0,VALID,0.757,
2017-09-26, 07:52:06,VALID,918.176,VALID,0.0,VALID,81.107,VALID,433.621,VALID,22.801,VALID,92.0,VALID,1.199,
2017-09-26, 07:53:06,VALID,918.179,VALID,0.0,VALID,81.685,VALID,430.267,VALID,22.825,VALID,77.0,VALID,0.931,
2017-09-26, 07:54:06,VALID,918.182,VALID,0.0,VALID,81.693,VALID,313.194,VALID,22.924,VALID,89.0,VALID,1.048,
2017-09-26, 07:55:06,VALID,918.171,VALID,0.0,VALID,80.562,VALID,189.074,VALID,22.895,VALID,103.0,VALID,0.663,
2017-09-26, 07:56:06,VALID,918.182,VALID,0.0,VALID,79.865,VALID,114.106,VALID,22.919,VALID,121.0,VALID,0.472,
2017-09-26, 07:57:06,VALID,918.178,VALID,0.0,VALID,80.724,VALID,122.244,VALID,22.969,VALID,95.0,VALID,0.748,
2017-09-26, 07:58:06,VALID,918.185,VALID,0.0,VALID,81.396,VALID,124.583,VALID,22.923,VALID,114.0,VALID,0.787,
2017-09-26, 07:59:06,VALID,918.198,VALID,0.0,VALID,80.612,VALID,148.457,VALID,22.854,VALID,135.0,VALID,0.842,
2017-09-26, 08:00:06,VALID,918.2,VALID,0.0,VALID,80.061,VALID,109.426,VALID,22.766,VALID,137.0,VALID,0.666,
2017-09-26, 08:01:06,VALID,918.208,VALID,0.0,VALID,81.423,VALID,98.754,VALID,22.725,VALID,169.0,VALID,0.193,
2017-09-26, 08:02:06,VALID,918.222,VALID,0.0,VALID,81.285,VALID,102.123,VALID,22.753,VALID,141.0,VALID,0.173,
2017-09-26, 08:03:06,VALID,918.223,VALID,0.0,VALID,81.166,VALID,112.092,VALID,22.77,VALID,141.0,VALID,0.179,
2017-09-26, 08:04:06,VALID,918.231,VALID,0.0,VALID,80.939,VALID,120.579,VALID,22.786,VALID,156.0,VALID,0.407,
2017-09-26, 08:05:06,VALID,918.23,VALID,0.0,VALID,81.027,VALID,140.819,VALID,22.737,VALID,147.0,VALID,0.595,
2017-09-26, 08:06:06,VALID,918.229,VALID,0.0,VALID,80.916,VALID,131.831,VALID,22.606,VALID,144.0,VALID,1.043,
2017-09-26, 08:07:06,VALID,918.227,VALID,0.0,VALID,81.352,VALID,133.9,VALID,22.454,VALID,130.0,VALID,1.072,
2017-09-26, 08:08:06,VALID,918.226,VALID,0.0,VALID,82.774,VALID,138.034,VALID,22.255,VALID,126.0,VALID,0.871,
2017-09-26, 08:09:06,VALID,918.213,VALID,0.0,VALID,84.218,VALID,139.761,VALID,22.17,VALID,136.0,VALID,0.382,
2017-09-26, 08:10:06,VALID,918.208,VALID,0.0,VALID,83.886,VALID,142.725,VALID,22.184,VALID,128.0,VALID,0.544,
2017-09-26, 08:11:06,VALID,918.18,VALID,0.0,VALID,83.962,VALID,145.159,VALID,22.138,VALID,120.0,VALID,0.534,
2017-09-26, 08:12:06,VALID,918.165,VALID,0.0,VALID,84.198,VALID,147.563,VALID,22.157,VALID,107.0,VALID,0.542,
2017-09-26, 08:13:06,VALID,918.156,VALID,0.0,VALID,84.751,VALID,149.649,VALID,22.189,VALID,93.0,VALID,0.452,
2017-09-26, 08:14:06,VALID,918.145,VALID,0.0,VALID,84.338,VALID,151.434,VALID,22.236,VALID,92.0,VALID,0.595,
2017-09-26, 08:15:06,VALID,918.15,VALID,0.0,VALID,83.638,VALID,153.271,VALID,22.205,VALID,90.0,VALID,0.821,
2017-09-26, 08:16:06,VALID,918.153,VALID,0.0,VALID,84.568,VALID,155.195,VALID,22.119,VALID,88.0,VALID,0.728,
2017-09-26, 08:17:06,VALID,918.157,VALID,0.0,VALID,84.953,VALID,159.162,VALID,22.064,VALID,79.0,VALID,0.816,
2017-09-26, 08:18:06,VALID,918.18,VALID,0.0,VALID,85.43,VALID,164.103,VALID,22.016,VALID,82.0,VALID,0.88,
2017-09-26, 08:19:06,VALID,918.179,VALID,0.0,VALID,85.792,VALID,174.276,VALID,21.942,VALID,88.0,VALID,0.768,
2017-09-26, 08:20:06,VALID,918.189,VALID,0.0,VALID,85.988,VALID,259.976,VALID,21.928,VALID,96.0,VALID,0.548,
2017-09-26, 08:21:06,VALID,918.197,VALID,0.0,VALID,86.631,VALID,257.093,VALID,22.006,VALID,96.0,VALID,0.137,
2017-09-26, 08:22:06,VALID,918.2,VALID,0.0,VALID,87.372,VALID,190.172,VALID,22.202,VALID,88.0,VALID,0.171,
2017-09-26, 08:23:06,VALID,918.208,VALID,0.0,VALID,85.712,VALID,196.246,VALID,22.424,VALID,97.0,VALID,0.021,
2017-09-26, 08:24:06,VALID,918.225,VALID,0.0,VALID,84.265,VALID,324.511,VALID,22.604,VALID,182.0,VALID,0.074,
2017-09-26, 08:25:06,VALID,918.259,VALID,0.0,VALID,83.361,VALID,599.998,VALID,22.728,VALID,151.0,VALID,0.0,
2017-09-26, 08:26:06,VALID,918.302,VALID,0.0,VALID,82.141,VALID,579.157,VALID,22.99,VALID,154.0,VALID,0.045,
2017-09-26, 08:27:06,VALID,918.337,VALID,0.0,VALID,81.293,VALID,549.671,VALID,23.312,VALID,142.0,VALID,0.168,
2017-09-26, 08:28:06,VALID,918.396,VALID,0.0,VALID,79.515,VALID,518.061,VALID,23.625,VALID,124.0,VALID,0.233,
2017-09-26, 08:29:06,VALID,918.438,VALID,0.0,VALID,78.675,VALID,575.671,VALID,23.694,VALID,128.0,VALID,0.167,
2017-09-26, 08:30:06,VALID,918.478,VALID,0.0,VALID,78.282,VALID,568.31,VALID,23.79,VALID,115.0,VALID,0.099,
2017-09-26, 08:31:06,VALID,918.499,VALID,0.0,VALID,76.168,VALID,557.706,VALID,23.954,VALID,99.0,VALID,0.0,
2017-09-26, 08:32:06,VALID,918.533,VALID,0.0,VALID,77.128,VALID,556.353,VALID,24.276,VALID,68.0,VALID,0.373,
2017-09-26, 08:33:06,VALID,918.538,VALID,0.0,VALID,75.343,VALID,554.696,VALID,24.591,VALID,344.0,VALID,0.246,
2017-09-26, 08:34:06,VALID,918.553,VALID,0.0,VALID,74.404,VALID,556.406,VALID,24.793,VALID,340.0,VALID,0.0,
2017-09-26, 08:35:06,VALID,918.547,VALID,0.0,VALID,73.848,VALID,559.43,VALID,25.002,VALID,340.0,VALID,0.0,
2017-09-26, 08:36:06,VALID,918.558,VALID,0.0,VALID,73.972,VALID,562.737,VALID,25.207,VALID,1.0,VALID,0.339,
2017-09-26, 08:37:06,VALID,918.571,VALID,0.0,VALID,73.821,VALID,566.455,VALID,25.401,VALID,11.0,VALID,0.561,
2017-09-26, 08:38:06,VALID,918.575,VALID,0.0,VALID,71.944,VALID,569.178,VALID,25.482,VALID,338.0,VALID,0.582,
2017-09-26, 08:39:06,VALID,918.592,VALID,0.0,VALID,69.41,VALID,570.198,VALID,25.614,VALID,1.0,VALID,0.436,
2017-09-26, 08:40:06,VALID,918.611,VALID,0.0,VALID,67.745,VALID,570.718,VALID,25.749,VALID,329.0,VALID,0.314,
2017-09-26, 08:41:06,VALID,918.647,VALID,0.0,VALID,66.637,VALID,575.886,VALID,25.744,VALID,290.0,VALID,0.031,
2017-09-26, 08:42:06,VALID,918.664,VALID,0.0,VALID,67.948,VALID,576.581,VALID,25.938,VALID,32.0,VALID,0.241,
2017-09-26, 08:43:06,VALID,918.667,VALID,0.0,VALID,65.005,VALID,576.007,VALID,26.254,VALID,348.0,VALID,0.498,
2017-09-26, 08:44:06,VALID,918.677,VALID,0.0,VALID,62.919,VALID,584.131,VALID,26.203,VALID,14.0,VALID,0.834,
2017-09-26, 08:45:06,VALID,918.699,VALID,0.0,VALID,64.672,VALID,590.691,VALID,25.811,VALID,342.0,VALID,1.078,
2017-09-26, 08:46:06,VALID,918.697,VALID,0.0,VALID,64.559,VALID,590.286,VALID,25.52,VALID,359.0,VALID,0.231,
2017-09-26, 08:47:06,VALID,918.705,VALID,0.0,VALID,65.043,VALID,595.13,VALID,25.33,VALID,266.0,VALID,0.57,
2017-09-26, 08:48:06,VALID,918.7,VALID,0.0,VALID,65.883,VALID,601.354,VALID,24.881,VALID,247.0,VALID,0.951,
2017-09-26, 08:49:06,VALID,918.708,VALID,0.0,VALID,67.061,VALID,604.901,VALID,24.491,VALID,209.0,VALID,0.632,
2017-09-26, 08:50:06,VALID,918.708,VALID,0.0,VALID,67.378,VALID,607.227,VALID,24.426,VALID,196.0,VALID,0.229,
2017-09-26, 08:51:06,VALID,918.733,VALID,0.0,VALID,68.157,VALID,611.86,VALID,24.596,VALID,155.0,VALID,0.126,
2017-09-26, 08:52:06,VALID,918.763,VALID,0.0,VALID,67.937,VALID,615.713,VALID,24.936,VALID,273.0,VALID,0.393,
2017-09-26, 08:53:06,VALID,918.791,VALID,0.0,VALID,68.57,VALID,622.311,VALID,25.063,VALID,238.0,VALID,0.433,
2017-09-26, 08:54:06,VALID,918.79,VALID,0.0,VALID,69.024,VALID,624.62,VALID,25.036,VALID,249.0,VALID,0.298,
2017-09-26, 08:55:06,VALID,918.804,VALID,0.0,VALID,68.792,VALID,625.169,VALID,25.184,VALID,276.0,VALID,0.07,
2017-09-26, 08:56:06,VALID,918.814,VALID,0.0,VALID,69.586,VALID,625.809,VALID,25.492,VALID,26.0,VALID,0.523,
2017-09-26, 08:57:06,VALID,918.843,VALID,0.0,VALID,69.022,VALID,630.637,VALID,25.857,VALID,315.0,VALID,0.723,
2017-09-26, 08:58:06,VALID,918.856,VALID,0.0,VALID,66.825,VALID,637.0,VALID,25.834,VALID,312.0,VALID,0.53,
2017-09-26, 08:59:06,VALID,918.861,VALID,0.0,VALID,66.529,VALID,636.753,VALID,25.748,VALID,11.0,VALID,0.499,
2017-09-26, 09:00:06,VALID,918.851,VALID,0.0,VALID,66.79,VALID,638.266,VALID,25.901,VALID,96.0,VALID,0.215,
2017-09-26, 09:01:06,VALID,918.858,VALID,0.0,VALID,65.903,VALID,646.162,VALID,26.117,VALID,355.0,VALID,1.086,
2017-09-26, 09:02:06,VALID,918.843,VALID,0.0,VALID,65.067,VALID,650.423,VALID,26.027,VALID,354.0,VALID,0.863,
2017-09-26, 09:03:06,VALID,918.852,VALID,0.0,VALID,67.519,VALID,654.657,VALID,25.982,VALID,16.0,VALID,0.689,
2017-09-26, 09:04:06,VALID,918.868,VALID,0.0,VALID,68.084,VALID,657.327,VALID,26.159,VALID,316.0,VALID,0.337,
2017-09-26, 09:05:06,VALID,918.884,VALID,0.0,VALID,64.216,VALID,662.347,VALID,26.186,VALID,218.0,VALID,0.03,
2017-09-26, 09:06:06,VALID,918.892,VALID,0.0,VALID,64.234,VALID,665.149,VALID,26.179,VALID,262.0,VALID,0.239,
2017-09-26, 09:07:06,VALID,918.902,VALID,0.0,VALID,65.065,VALID,668.5,VALID,26.158,VALID,68.0,VALID,0.352,
2017-09-26, 09:08:06,VALID,918.914,VALID,0.0,VALID,65.25,VALID,670.043,VALID,26.215,VALID,360.0,VALID,0.366,
2017-09-26, 09:09:06,VALID,918.921,VALID,0.0,VALID,67.467,VALID,673.771,VALID,26.457,VALID,347.0,VALID,0.669,
2017-09-26, 09:10:06,VALID,918.911,VALID,0.0,VALID,64.835,VALID,676.205,VALID,26.512,VALID,6.0,VALID,1.77,
2017-09-26, 09:11:06,VALID,918.909,VALID,0.0,VALID,67.222,VALID,679.357,VALID,26.046,VALID,9.0,VALID,1.925,
2017-09-26, 09:12:06,VALID,918.917,VALID,0.0,VALID,69.115,VALID,684.1,VALID,25.751,VALID,9.0,VALID,1.377,
2017-09-26, 09:13:06,VALID,918.919,VALID,0.0,VALID,67.965,VALID,686.587,VALID,25.76,VALID,356.0,VALID,0.838,
2017-09-26, 09:14:06,VALID,918.916,VALID,0.0,VALID,68.072,VALID,691.033,VALID,25.69,VALID,11.0,VALID,0.833,
2017-09-26, 09:15:06,VALID,918.915,VALID,0.0,VALID,67.158,VALID,694.627,VALID,25.724,VALID,208.0,VALID,0.695,
2017-09-26, 09:16:06,VALID,918.918,VALID,0.0,VALID,67.637,VALID,696.819,VALID,25.67,VALID,299.0,VALID,0.432,
2017-09-26, 09:17:06,VALID,918.934,VALID,0.0,VALID,70.337,VALID,695.803,VALID,25.811,VALID,335.0,VALID,1.036,
2017-09-26, 09:18:06,VALID,918.948,VALID,0.0,VALID,67.97,VALID,697.781,VALID,25.879,VALID,312.0,VALID,0.563,
2017-09-26, 09:19:06,VALID,918.947,VALID,0.0,VALID,67.588,VALID,699.191,VALID,25.922,VALID,351.0,VALID,1.562,
2017-09-26, 09:20:06,VALID,918.951,VALID,0.0,VALID,66.074,VALID,699.701,VALID,25.651,VALID,5.0,VALID,1.451,
2017-09-26, 09:21:06,VALID,918.944,VALID,0.0,VALID,68.095,VALID,705.004,VALID,25.453,VALID,345.0,VALID,0.998,
2017-09-26, 09:22:06,VALID,918.96,VALID,0.0,VALID,69.65,VALID,708.668,VALID,25.559,VALID,284.0,VALID,0.641,
2017-09-26, 09:23:06,VALID,918.978,VALID,0.0,VALID,68.651,VALID,713.875,VALID,25.624,VALID,334.0,VALID,1.23,
2017-09-26, 09:24:06,VALID,918.995,VALID,0.0,VALID,68.639,VALID,720.066,VALID,25.587,VALID,339.0,VALID,0.965,
2017-09-26, 09:25:06,VALID,919.018,VALID,0.0,VALID,66.161,VALID,723.597,VALID,25.642,VALID,304.0,VALID,0.366,
2017-09-26, 09:26:06,VALID,919.041,VALID,0.0,VALID,66.777,VALID,728.102,VALID,25.603,VALID,263.0,VALID,0.095,
2017-09-26, 09:27:06,VALID,919.042,VALID,0.0,VALID,68.022,VALID,732.927,VALID,25.906,VALID,349.0,VALID,1.252,
2017-09-26, 09:28:06,VALID,919.077,VALID,0.0,VALID,67.29,VALID,737.753,VALID,26.223,VALID,300.0,VALID,0.648,
2017-09-26, 09:29:06,VALID,919.099,VALID,0.0,VALID,64.014,VALID,741.977,VALID,26.311,VALID,311.0,VALID,0.762,
2017-09-26, 09:30:06,VALID,919.093,VALID,0.0,VALID,64.321,VALID,744.922,VALID,26.292,VALID,17.0,VALID,0.593,
2017-09-26, 09:31:06,VALID,919.12,VALID,0.0,VALID,64.917,VALID,746.986,VALID,26.39,VALID,296.0,VALID,0.529,
2017-09-26, 09:32:06,VALID,919.117,VALID,0.0,VALID,65.833,VALID,749.23,VALID,26.454,VALID,335.0,VALID,0.909,
2017-09-26, 09:33:06,VALID,919.128,VALID,0.0,VALID,61.737,VALID,751.562,VALID,26.45,VALID,340.0,VALID,0.736,
2017-09-26, 09:34:06,VALID,919.146,VALID,0.0,VALID,65.114,VALID,753.33,VALID,26.343,VALID,344.0,VALID,1.106,
2017-09-26, 09:35:06,VALID,919.156,VALID,0.0,VALID,64.259,VALID,754.25,VALID,26.385,VALID,341.0,VALID,1.098,
2017-09-26, 09:36:06,VALID,919.177,VALID,0.0,VALID,65.378,VALID,759.402,VALID,26.434,VALID,20.0,VALID,0.527,
2017-09-26, 09:37:06,VALID,919.185,VALID,0.0,VALID,64.846,VALID,763.687,VALID,26.663,VALID,3.0,VALID,0.813,
2017-09-26, 09:38:06,VALID,919.175,VALID,0.0,VALID,62.537,VALID,767.37,VALID,26.713,VALID,349.0,VALID,1.029,
2017-09-26, 09:39:06,VALID,919.18,VALID,0.0,VALID,61.913,VALID,773.953,VALID,26.574,VALID,347.0,VALID,0.596,
2017-09-26, 09:40:06,VALID,919.177,VALID,0.0,VALID,64.857,VALID,778.443,VALID,26.581,VALID,28.0,VALID,1.03,
2017-09-26, 09:41:06,VALID,919.165,VALID,0.0,VALID,63.36,VALID,781.295,VALID,26.79,VALID,5.0,VALID,1.04,
2017-09-26, 09:42:06,VALID,919.162,VALID,0.0,VALID,64.131,VALID,788.567,VALID,26.862,VALID,24.0,VALID,1.004,
2017-09-26, 09:43:06,VALID,919.139,VALID,0.0,VALID,64.121,VALID,792.774,VALID,27.042,VALID,35.0,VALID,0.741,
2017-09-26, 09:44:06,VALID,919.121,VALID,0.0,VALID,62.345,VALID,797.466,VALID,27.12,VALID,25.0,VALID,0.778,
2017-09-26, 09:45:06,VALID,919.115,VALID,0.0,VALID,62.897,VALID,800.839,VALID,27.012,VALID,6.0,VALID,1.208,
2017-09-26, 09:46:06,VALID,919.114,VALID,0.0,VALID,64.512,VALID,809.932,VALID,26.889,VALID,6.0,VALID,1.004,
2017-09-26, 09:47:06,VALID,919.11,VALID,0.0,VALID,63.63,VALID,780.976,VALID,26.94,VALID,3.0,VALID,1.136,
2017-09-26, 09:48:06,VALID,919.113,VALID,0.0,VALID,62.371,VALID,676.568,VALID,26.934,VALID,2.0,VALID,0.67,
2017-09-26, 09:49:06,VALID,919.119,VALID,0.0,VALID,64.494,VALID,737.517,VALID,27.044,VALID,346.0,VALID,0.668,
2017-09-26, 09:50:06,VALID,919.133,VALID,0.0,VALID,63.348,VALID,825.136,VALID,27.127,VALID,340.0,VALID,0.589,
2017-09-26, 09:51:06,VALID,919.116,VALID,0.0,VALID,61.268,VALID,834.569,VALID,27.142,VALID,329.0,VALID,1.383,
2017-09-26, 09:52:06,VALID,919.117,VALID,0.0,VALID,62.238,VALID,836.094,VALID,27.139,VALID,17.0,VALID,1.194,
2017-09-26, 09:53:06,VALID,919.11,VALID,0.0,VALID,61.614,VALID,836.425,VALID,27.168,VALID,311.0,VALID,0.701,
2017-09-26, 09:54:06,VALID,919.108,VALID,0.0,VALID,59.234,VALID,838.559,VALID,26.902,VALID,310.0,VALID,0.931,
2017-09-26, 09:55:06,VALID,919.102,VALID,0.0,VALID,62.727,VALID,840.628,VALID,26.66,VALID,348.0,VALID,0.566,
2017-09-26, 09:56:06,VALID,919.092,VALID,0.0,VALID,61.955,VALID,841.497,VALID,26.605,VALID,322.0,VALID,1.191,
2017-09-26, 09:57:06,VALID,919.086,VALID,0.0,VALID,63.596,VALID,839.323,VALID,26.389,VALID,351.0,VALID,1.023,
2017-09-26, 09:58:06,VALID,919.073,VALID,0.0,VALID,65.471,VALID,846.952,VALID,26.412,VALID,7.0,VALID,0.939,
2017-09-26, 09:59:06,VALID,919.047,VALID,0.0,VALID,64.555,VALID,849.364,VALID,26.452,VALID,20.0,VALID,1.821,
2017-09-26, 10:00:06,VALID,919.041,VALID,0.0,VALID,64.572,VALID,851.888,VALID,26.632,VALID,341.0,VALID,0.843,
2017-09-26, 10:01:06,VALID,919.027,VALID,0.0,VALID,62.84,VALID,854.841,VALID,26.781,VALID,300.0,VALID,0.43,
2017-09-26, 10:02:06,VALID,919.002,VALID,0.0,VALID,62.994,VALID,855.754,VALID,26.874,VALID,228.0,VALID,0.309,
2017-09-26, 10:03:06,VALID,918.971,VALID,0.0,VALID,61.007,VALID,854.577,VALID,26.925,VALID,16.0,VALID,0.263,
2017-09-26, 10:04:06,VALID,918.954,VALID,0.0,VALID,61.51,VALID,894.13,VALID,27.088,VALID,358.0,VALID,0.212,
2017-09-26, 10:05:06,VALID,918.929,VALID,0.0,VALID,61.099,VALID,792.92,VALID,27.476,VALID,291.0,VALID,0.39,
2017-09-26, 10:06:06,VALID,918.908,VALID,0.0,VALID,59.579,VALID,784.221,VALID,27.599,VALID,295.0,VALID,0.53,
2017-09-26, 10:07:06,VALID,918.909,VALID,0.0,VALID,57.909,VALID,876.308,VALID,27.51,VALID,243.0,VALID,0.745,
2017-09-26, 10:08:06,VALID,918.895,VALID,0.0,VALID,58.941,VALID,874.468,VALID,27.152,VALID,208.0,VALID,0.47,
2017-09-26, 10:09:06,VALID,918.892,VALID,0.0,VALID,58.623,VALID,877.502,VALID,26.947,VALID,360.0,VALID,1.241,
2017-09-26, 10:10:06,VALID,918.884,VALID,0.0,VALID,60.928,VALID,874.792,VALID,26.554,VALID,11.0,VALID,1.733,
2017-09-26, 10:11:06,VALID,918.885,VALID,0.0,VALID,61.712,VALID,868.629,VALID,26.311,VALID,11.0,VALID,1.063,
2017-09-26, 10:12:06,VALID,918.874,VALID,0.0,VALID,63.365,VALID,833.832,VALID,26.507,VALID,298.0,VALID,0.352,
2017-09-26, 10:13:06,VALID,918.871,VALID,0.0,VALID,61.621,VALID,808.459,VALID,26.721,VALID,250.0,VALID,0.631,
2017-09-26, 10:14:06,VALID,918.871,VALID,0.0,VALID,62.231,VALID,780.181,VALID,26.555,VALID,292.0,VALID,1.201,
2017-09-26, 10:15:06,VALID,918.845,VALID,0.0,VALID,61.306,VALID,888.634,VALID,26.523,VALID,285.0,VALID,0.646,
2017-09-26, 10:16:06,VALID,918.833,VALID,0.0,VALID,61.41,VALID,899.239,VALID,26.654,VALID,353.0,VALID,1.05,
2017-09-26, 10:17:06,VALID,918.799,VALID,0.0,VALID,61.386,VALID,911.916,VALID,26.744,VALID,37.0,VALID,0.714,
2017-09-26, 10:18:06,VALID,918.781,VALID,0.0,VALID,61.267,VALID,928.419,VALID,27.07,VALID,128.0,VALID,0.365,
2017-09-26, 10:19:06,VALID,918.762,VALID,0.0,VALID,62.288,VALID,952.128,VALID,27.416,VALID,249.0,VALID,0.437,
2017-09-26, 10:20:06,VALID,918.739,VALID,0.0,VALID,62.126,VALID,974.197,VALID,27.826,VALID,326.0,VALID,0.194,
2017-09-26, 10:21:06,VALID,918.731,VALID,0.0,VALID,60.628,VALID,452.052,VALID,28.087,VALID,214.0,VALID,0.092,
2017-09-26, 10:22:06,VALID,918.726,VALID,0.0,VALID,58.917,VALID,948.262,VALID,28.181,VALID,299.0,VALID,0.622,
2017-09-26, 10:23:06,VALID,918.711,VALID,0.0,VALID,57.901,VALID,1010.821,VALID,27.93,VALID,327.0,VALID,0.652,
2017-09-26, 10:24:06,VALID,918.685,VALID,0.0,VALID,57.949,VALID,980.179,VALID,27.84,VALID,341.0,VALID,1.582,
2017-09-26, 10:25:06,VALID,918.666,VALID,0.0,VALID,59.202,VALID,285.555,VALID,27.516,VALID,302.0,VALID,0.887,
2017-09-26, 10:26:06,VALID,918.672,VALID,0.0,VALID,60.158,VALID,194.122,VALID,27.428,VALID,287.0,VALID,0.377,
2017-09-26, 10:27:06,VALID,918.657,VALID,0.0,VALID,61.962,VALID,169.072,VALID,27.427,VALID,19.0,VALID,0.75,
2017-09-26, 10:28:06,VALID,918.659,VALID,0.0,VALID,61.862,VALID,535.575,VALID,27.368,VALID,303.0,VALID,0.288,
2017-09-26, 10:29:06,VALID,918.645,VALID,0.0,VALID,60.351,VALID,939.964,VALID,27.29,VALID,13.0,VALID,1.235,
2017-09-26, 10:30:06,VALID,918.634,VALID,0.0,VALID,60.882,VALID,929.102,VALID,27.122,VALID,255.0,VALID,0.504,
2017-09-26, 10:31:06,VALID,918.62,VALID,0.0,VALID,60.863,VALID,929.186,VALID,27.011,VALID,316.0,VALID,1.449,
2017-09-26, 10:32:06,VALID,918.616,VALID,0.0,VALID,57.809,VALID,930.605,VALID,27.04,VALID,323.0,VALID,0.947,
2017-09-26, 10:33:06,VALID,918.602,VALID,0.0,VALID,57.397,VALID,929.035,VALID,27.126,VALID,252.0,VALID,0.321,
2017-09-26, 10:34:06,VALID,918.581,VALID,0.0,VALID,59.84,VALID,927.134,VALID,27.197,VALID,286.0,VALID,0.46,
2017-09-26, 10:35:06,VALID,918.573,VALID,0.0,VALID,58.25,VALID,930.007,VALID,27.239,VALID,248.0,VALID,1.169,
2017-09-26, 10:36:06,VALID,918.541,VALID,0.0,VALID,58.971,VALID,876.372,VALID,26.914,VALID,6.0,VALID,1.55,